Home > Weather > Thoothukudi > Past weeks

Flag for India Weather for the Past 2 Weeks in Thoothukudi, Tamil Nadu, India

Now
79 °F

Passing clouds.


Feels Like: 82 °F
Forecast: 77 / 91 °F
Wind: 3 mph from Northeast

Location: Thiruvananthapuram

Current Time: Feb 9, 2016 at 5:52:46 AM

Latest Report: Feb 9, 2016 at 5:00 AM


Visibility: 2 mi

Pressure: 29.83 "Hg

Humidity: 89%

Dew point: 75 °F

Location of ThoothukudiLocation

Historic Weather in Thoothukudi — Graph

°F

Thoothukudi Temperature Yesterday

Maximum temperature yesterday: 91 °F (at 12:30 PM)
Minimum temperature yesterday: 79 °F (at 3:00 AM)
Average temperature yesterday: 85 °F

High & Low Weather Summary for the Past Weeks

 TemperatureHumidityPressure
High91 °F (Jan 25, 1:00 PM)94% (Jan 26, 7:00 AM)29.98 "Hg (Jan 26, 7:00 AM)
Low72 °F (Feb 2, 5:30 AM)38% (Jan 30, 10:00 AM)29.65 "Hg (Feb 3, 5:30 PM)
Average83 °F71%29.86 "Hg
* Reported Jan 25 3:30 AM — Feb 9 4:00 AM, Thoothukudi, Weather by CustomWeather, © 2016

Note: Actual official high and low records may vary slightly from our data, if they occured in-between our weather recording intervals... More about our weather records

Advertising

Thoothukudi Weather History for the Previous 24 Hours

 ConditionsComfort  
Time TempWeatherWind HumidityBarometerVisibility
4:00 AM
Tue, Feb 9
81 °FPassing clouds.No wind84%29.83 "Hg2 mi
3:00 AM81 °FPartly cloudy.3 mph84%29.83 "Hg2 mi
2:30 AM81 °FPartly cloudy.5 mph84%29.86 "Hg2 mi
2:00 AM81 °FPartly cloudy.No wind84%29.86 "Hg2 mi
1:30 AM82 °FPartly cloudy.5 mph79%29.86 "Hg2 mi
1:00 AM82 °FPartly cloudy.5 mph79%29.86 "Hg2 mi
12:30 AM82 °FPartly cloudy.No wind79%29.89 "Hg2 mi
12:00 AM82 °FPartly cloudy.No wind79%29.89 "Hg2 mi
11:30 PM
Mon, Feb 8
82 °FPartly cloudy.No wind79%29.89 "Hg2 mi
11:00 PM82 °FPartly cloudy.3 mph79%29.89 "Hg2 mi
10:30 PM84 °FPartly cloudy.3 mph74%29.89 "Hg2 mi
9:30 PM84 °FPartly cloudy.5 mph74%29.89 "Hg2 mi
9:00 PM84 °FPartly cloudy.5 mph74%29.89 "Hg2 mi
8:30 PM84 °FPartly cloudy.5 mph74%29.86 "Hg2 mi
8:00 PM84 °FPartly cloudy.5 mph74%29.86 "Hg2 mi
7:30 PM84 °FPartly cloudy.6 mph74%29.86 "Hg2 mi
7:00 PM86 °FPartly cloudy.5 mph75%29.83 "Hg2 mi
6:30 PM86 °FBroken clouds.6 mph75%29.83 "Hg2 mi
6:00 PM86 °FBroken clouds.6 mph75%29.83 "Hg2 mi
5:30 PM86 °FBroken clouds.7 mph75%29.80 "Hg2 mi
5:00 PM88 °FBroken clouds.6 mph70%29.80 "Hg2 mi
4:30 PM88 °FScattered clouds.7 mph70%29.80 "Hg2 mi
4:00 PM88 °FScattered clouds.6 mph66%29.77 "Hg2 mi
3:30 PM88 °FHaze.8 mph66%29.77 "Hg2 mi
3:00 PM88 °FScattered clouds.7 mph59%29.77 "Hg2 mi
2:30 PM91 °FScattered clouds.8 mph59%29.80 "Hg2 mi
2:00 PM91 °FHaze.9 mph59%29.80 "Hg2 mi
1:30 PM91 °FHaze.No wind56%29.80 "Hg2 mi
1:00 PM91 °FHaze.7 mph56%29.83 "Hg2 mi
12:30 PM91 °FHaze.5 mph56%29.83 "Hg2 mi
12:00 PM90 °FHaze.6 mph59%29.86 "Hg2 mi
11:30 AM90 °FScattered clouds.6 mph59%29.86 "Hg2 mi
10:30 AM88 °FScattered clouds.6 mph62%29.89 "Hg2 mi
10:00 AM86 °FScattered clouds.6 mph66%29.89 "Hg1 mi
9:30 AM84 °FScattered clouds.6 mph74%29.89 "Hg1 mi
9:00 AM86 °FFog.No wind70%29.89 "Hg1 mi
8:30 AM84 °FFog.6 mph74%29.89 "Hg1 mi
8:00 AM82 °FFog.6 mph79%29.86 "Hg1 mi
7:30 AM81 °FFog.No wind84%29.86 "Hg1 mi
6:30 AM79 °FHaze.No wind89%29.86 "Hg2 mi
6:00 AM79 °FHaze.No wind89%29.86 "Hg2 mi
5:30 AM79 °FHaze.No wind89%29.83 "Hg2 mi
5:00 AM79 °FHaze.3 mph89%29.83 "Hg2 mi
Weather by CustomWeather, © 2016

See weather overviewHow to use our weather pages